Weather reports worldwide

Advertisment
Isle Of Portland, United Kingdom (3857): temperature & dewpoint: 11.01.2021 21:00:00 - 17.01.2021 21:00:00 (GMT)Isle Of Portland, United Kingdom (3857): wind speed & gusts: 11.01.2021 21:00:00 - 17.01.2021 21:00:00 (GMT)Isle Of Portland, United Kingdom (3857): wind direction: 11.01.2021 21:00:00 - 17.01.2021 21:00:00 (GMT)Isle Of Portland, United Kingdom (3857): reduced air pressure: 11.01.2021 21:00:00 - 17.01.2021 21:00:00 (GMT)Isle Of Portland, United Kingdom (3857): visibility: 11.01.2021 21:00:00 - 17.01.2021 21:00:00 (GMT)Isle Of Portland, United Kingdom (3857): precipitation: 11.01.2021 21:00:00 - 17.01.2021 21:00:00 (GMT)
Date & Time tt [°C] td [°C] ff [km/h] ff [kn] fx [km/h] fx [kn] dd ppp [hPa] vv [km] rr [mm]
17.01.2021 21:00:00 7,6 4,2 24 13 - - WNW 1028,4 20 0,0
17.01.2021 20:00:00 7,5 4,1 15 8 - - W 1028,6 24 0,0
17.01.2021 19:00:00 7,5 3,7 15 8 - - WNW 1028,5 24 0,0
17.01.2021 18:00:00 7,5 3,3 21 11 - - NW 1028,7 23 0,0
17.01.2021 17:00:00 7,5 3,3 21 11 - - NW 1028,3 21 0,0
17.01.2021 16:00:00 7,6 3,2 21 11 - - NW 1027,7 30 0,0
17.01.2021 15:00:00 7,6 3,0 24 13 - - NW 1027,6 28 0,0
17.01.2021 14:00:00 7,9 3,3 18 10 - - NW 1027,1 35 0,0
17.01.2021 13:00:00 7,7 3,6 22 12 - - NW 1027,0 21 0,0
17.01.2021 12:00:00 7,8 3,7 22 12 - - NW 1027,3 28 0,0
17.01.2021 11:00:00 7,1 3,3 31 17 - - NW 1027,4 21 0,0
17.01.2021 10:00:00 6,6 3,3 31 17 - - NW 1026,7 23 0,0
17.01.2021 09:00:00 6,6 2,9 31 17 46 25 NW 1025,6 30 0,0
17.01.2021 08:00:00 6,7 3,0 28 15 48 26 NW 1024,7 22 0,0
17.01.2021 07:00:00 6,9 3,2 31 17 - - NW 1023,8 19 0,0
17.01.2021 06:00:00 7,3 3,4 31 17 50 27 NW 1023,3 23 0,0
17.01.2021 05:00:00 7,6 3,5 35 19 46 25 WNW 1023,0 17 0,0
17.01.2021 04:00:00 7,4 3,3 29 16 - - WNW 1022,7 16 0,0
17.01.2021 03:00:00 7,5 3,3 31 17 - - NW 1022,3 16 0,0
17.01.2021 02:00:00 7,0 3,0 28 15 - - NW 1021,9 15 0,0
17.01.2021 01:00:00 7,7 2,2 31 17 - - WNW 1021,7 17 0,0
17.01.2021 00:00:00 8,1 2,5 29 16 - - NW 1021,7 14 0,0
16.01.2021 23:00:00 8,3 3,4 28 15 - - NW 1021,4 19 0,0
16.01.2021 22:00:00 8,3 4,6 29 16 - - NW 1021,1 15 0,0
16.01.2021 21:00:00 8,4 5,3 31 17 - - WNW 1020,8 17 0,0
16.01.2021 20:00:00 8,5 5,6 26 14 - - WNW 1020,3 17 0,0
16.01.2021 19:00:00 8,6 5,9 31 17 - - WNW 1020,1 14 0,0
16.01.2021 18:00:00 8,8 5,9 29 16 - - WNW 1019,1 18 0,0
16.01.2021 17:00:00 8,9 5,4 28 15 - - WNW 1018,6 22 0,0
16.01.2021 16:00:00 8,9 5,6 21 11 - - NW 1018,4 16 0,0
16.01.2021 15:00:00 9,1 5,7 22 12 - - NW 1018,0 23 0,0
16.01.2021 14:00:00 9,5 5,5 26 14 - - NW 1017,5 25 0,0
16.01.2021 13:00:00 9,6 6,1 29 16 55 30 NW 1017,6 23 0,0
16.01.2021 12:00:00 9,2 7,1 35 19 54 29 NW 1017,3 18 0,0
16.01.2021 11:00:00 9,4 9,0 39 21 50 27 WNW 1017,3 10 0,0
16.01.2021 10:00:00 9,9 9,9 34 18 57 31 W 1016,9 7 1,0
16.01.2021 09:00:00 8,3 8,2 44 24 63 34 SSW 1017,3 2,6 1,4
16.01.2021 08:00:00 7,9 7,6 46 25 63 34 S 1018,2 6 1,6
16.01.2021 07:00:00 7,6 7,1 35 19 55 30 S 1020,0 3,2 1,0
16.01.2021 06:00:00 7,6 6,8 31 17 46 25 S 1021,1 10 0,2
16.01.2021 05:00:00 7,3 6,8 35 19 48 26 S 1022,4 7 0,6
16.01.2021 04:00:00 6,7 5,9 37 20 50 27 S 1023,4 7 2,2
16.01.2021 03:00:00 6,2 4,9 39 21 52 28 SSE 1024,9 7 0,6
16.01.2021 02:00:00 6,1 2,8 37 20 50 27 S 1026,2 27 0,0
16.01.2021 01:00:00 6,0 2,9 37 20 46 25 SSE 1026,9 18 0,0
16.01.2021 00:00:00 6,0 2,9 37 20 50 27 S 1027,6 21 0,0
15.01.2021 23:00:00 6,2 3,3 34 18 - - S 1028,4 23 0,0
15.01.2021 22:00:00 6,1 2,0 21 11 - - S 1029,1 40 0,0
15.01.2021 21:00:00 5,4 1,8 21 11 - - S 1029,6 30 0,0
15.01.2021 20:00:00 5,3 1,8 21 11 - - SSE 1029,8 35 0,0
15.01.2021 19:00:00 4,9 1,9 18 10 - - SSE 1029,9 35 0,0
15.01.2021 18:00:00 4,2 1,6 18 10 - - SE 1030,3 27 0,0
15.01.2021 17:00:00 3,4 1,6 16 9 - - ESE 1030,2 29 0,0
15.01.2021 16:00:00 3,8 1,3 15 8 - - ESE 1030,6 30 0,0
15.01.2021 15:00:00 4,0 1,1 15 8 - - E 1030,4 35 0,0
15.01.2021 14:00:00 4,2 1,5 15 8 - - E 1030,7 26 0,0
15.01.2021 13:00:00 3,9 1,3 13 7 - - ENE 1031,2 30 0,0
15.01.2021 12:00:00 3,9 1,5 15 8 - - E 1031,5 30 0,0
15.01.2021 11:00:00 3,1 1,1 16 9 - - NE 1031,6 30 0,0
15.01.2021 10:00:00 2,6 0,9 16 9 - - NE 1031,4 26 0,0
15.01.2021 09:00:00 2,5 0,7 16 9 - - NE 1030,3 27 0,0
15.01.2021 08:00:00 1,7 0,2 18 10 - - NE 1030,0 24 0,0
15.01.2021 07:00:00 2,0 0,5 16 9 - - NE 1029,3 22 0,0
15.01.2021 06:00:00 2,3 0,8 24 13 - - NE 1028,6 19 0,0
15.01.2021 05:00:00 2,3 0,8 18 10 - - NNE 1028,3 19 0,0
15.01.2021 04:00:00 2,5 0,7 16 9 - - N 1027,6 26 0,0
15.01.2021 03:00:00 3,0 0,6 15 8 - - NNE 1027,2 45 0,0
15.01.2021 02:00:00 3,6 1,4 15 8 - - N 1026,5 40 0,0
15.01.2021 01:00:00 4,0 2,3 21 11 - - N 1025,8 15 0,0
15.01.2021 00:00:00 4,3 3,2 24 13 - - N 1025,3 13 0,2
14.01.2021 23:00:00 5,2 3,3 28 15 - - N 1025,0 6 0,0
14.01.2021 22:00:00 5,9 3,4 31 17 - - N 1024,0 14 0,0
14.01.2021 21:00:00 7,0 5,1 24 13 - - N 1022,7 10 0,0
14.01.2021 20:00:00 8,1 5,7 35 19 55 30 NW 1021,3 19 0,0
14.01.2021 19:00:00 8,2 5,6 42 23 68 37 NW 1020,3 28 0,0
14.01.2021 18:00:00 8,6 5,7 48 26 65 35 NW 1019,4 28 0,0
14.01.2021 17:00:00 8,9 5,9 44 24 67 36 NW 1018,9 30 0,0
14.01.2021 16:00:00 9,1 6,0 44 24 67 36 NW 1017,8 28 0,0
14.01.2021 15:00:00 9,7 6,3 44 24 67 36 NW 1016,8 26 0,0
14.01.2021 14:00:00 10,2 6,9 46 25 68 37 NW 1016,2 27 0,0
14.01.2021 13:00:00 10,0 6,8 42 23 61 33 NW 1016,2 35 0,0
14.01.2021 12:00:00 9,9 7,5 41 22 57 31 NW 1015,9 30 0,0
14.01.2021 11:00:00 10,2 8,4 37 20 54 29 NW 1016,0 25 0,0
14.01.2021 10:00:00 10,0 9,1 35 19 54 29 WNW 1015,1 19 0,0
14.01.2021 09:00:00 9,7 9,3 41 22 52 28 WNW 1014,4 16 0,0
14.01.2021 08:00:00 9,6 9,6 34 18 46 25 W 1014,1 17 0,0
14.01.2021 07:00:00 9,5 9,5 26 14 48 26 W 1014,1 3,8 0,0
14.01.2021 06:00:00 9,8 9,8 37 20 52 28 WSW 1014,9 5 0,0
14.01.2021 05:00:00 9,7 9,6 37 20 52 28 WSW 1016,0 5 0,0
14.01.2021 04:00:00 9,6 9,5 35 19 50 27 W 1016,9 6 0,0
14.01.2021 03:00:00 9,6 9,5 37 20 54 29 W 1017,7 6 0,0
14.01.2021 02:00:00 9,6 9,4 39 21 52 28 W 1018,1 8 0,0
14.01.2021 01:00:00 9,5 9,3 41 22 59 32 W 1018,6 6 0,0
14.01.2021 00:00:00 9,5 9,1 37 20 50 27 W 1019,2 11 0,0
13.01.2021 23:00:00 9,4 9,0 35 19 55 30 W 1019,8 8 0,0
13.01.2021 22:00:00 9,2 8,8 41 22 54 29 W 1019,8 8 0,0
13.01.2021 21:00:00 9,2 8,8 37 20 50 27 W 1020,0 4,1 0,0
13.01.2021 20:00:00 9,3 8,5 35 19 - - W 1020,5 14 0,0
13.01.2021 19:00:00 9,4 8,3 26 14 - - W 1020,8 12 0,0
13.01.2021 18:00:00 9,5 8,2 24 13 - - W 1020,8 17 0,0
13.01.2021 17:00:00 9,8 8,0 37 20 50 27 WNW 1020,2 17 0,0
13.01.2021 16:00:00 9,8 8,2 39 21 50 27 WNW 1020,4 25 0,0
13.01.2021 15:00:00 10,0 8,2 39 21 55 30 WNW 1020,0 30 0,0
13.01.2021 14:00:00 10,0 8,1 48 26 61 33 WNW 1019,7 27 0,0
13.01.2021 13:00:00 10,2 8,2 37 20 54 29 W 1020,0 40 0,0
13.01.2021 12:00:00 9,8 8,5 39 21 57 31 W 1020,4 35 0,0
13.01.2021 11:00:00 9,7 8,5 37 20 54 29 W 1020,7 35 0,0
13.01.2021 10:00:00 9,3 8,8 42 23 52 28 W 1020,6 15 0,0
13.01.2021 09:00:00 9,1 8,8 39 21 48 26 W 1020,6 11 0,0
13.01.2021 08:00:00 9,1 8,7 31 17 46 25 W 1020,4 10 0,0
13.01.2021 07:00:00 9,2 8,8 34 18 - - W 1020,3 13 0,0
13.01.2021 06:00:00 9,1 8,8 29 16 - - W 1020,3 13 0,2
13.01.2021 05:00:00 9,2 8,9 26 14 - - W 1020,5 20 0,0
13.01.2021 04:00:00 9,2 9,1 26 14 - - W 1020,5 50 0,0
13.01.2021 03:00:00 8,9 8,8 21 11 - - W 1020,9 0,1 0,2
13.01.2021 02:00:00 7,7 7,6 5 3 - - SSE 1020,8 0,3 0,0
13.01.2021 01:00:00 7,2 6,9 9 5 - - SE 1021,3 2,8 0,0
13.01.2021 00:00:00 7,0 6,5 13 7 - - ESE 1021,4 4,2 0,0
12.01.2021 23:00:00 7,1 6,6 13 7 - - ESE 1021,2 11 0,0
12.01.2021 22:00:00 7,0 6,6 13 7 - - E 1020,8 19 0,0
12.01.2021 21:00:00 6,8 6,5 16 9 - - ENE 1020,5 17 0,2
12.01.2021 20:00:00 7,2 7,0 15 8 - - ENE 1019,9 10 0,2
12.01.2021 19:00:00 7,6 7,6 13 7 - - ENE 1019,3 6 0,2
12.01.2021 18:00:00 8,6 8,5 8 4 - - NW 1018,4 19 0,0
12.01.2021 17:00:00 8,8 8,7 11 6 - - WNW 1017,5 0,2 0,2
12.01.2021 16:00:00 8,7 8,6 11 6 - - NNW 1016,9 0,9 0,6
12.01.2021 15:00:00 9,5 9,4 29 16 - - W 1015,8 0,2 0,4
12.01.2021 14:00:00 9,5 9,4 31 17 - - W 1015,4 0,3 1,0
12.01.2021 13:00:00 9,7 9,3 37 20 52 28 W 1015,0 8 0,0
12.01.2021 12:00:00 9,9 9,1 42 23 54 29 WNW 1014,8 19 0,0
12.01.2021 11:00:00 9,9 9,1 39 21 54 29 W 1014,6 21 0,2
12.01.2021 10:00:00 10,0 8,9 42 23 55 30 WNW 1014,2 10 0,2
12.01.2021 09:00:00 9,9 8,9 39 21 50 27 W 1013,7 8 0,0
12.01.2021 08:00:00 9,8 8,9 39 21 55 30 W 1013,0 8 0,2
12.01.2021 07:00:00 9,5 8,7 46 25 61 33 W 1012,9 12 0,0
12.01.2021 06:00:00 9,4 8,4 50 27 72 39 W 1012,8 10 0,0
12.01.2021 05:00:00 9,1 8,2 55 30 68 37 W 1013,0 12 0,0
12.01.2021 04:00:00 9,0 7,7 50 27 74 40 W 1013,6 9 0,0
12.01.2021 03:00:00 9,0 7,4 59 32 81 44 W 1014,0 10 0,0
12.01.2021 02:00:00 8,8 7,5 52 28 70 38 W 1014,3 12 0,0
12.01.2021 01:00:00 9,1 7,8 54 29 70 38 W 1015,3 11 0,0
12.01.2021 00:00:00 9,2 7,7 54 29 72 39 W 1015,8 16 0,0
11.01.2021 23:00:00 9,0 7,9 50 27 67 36 W 1016,0 12 0,0
11.01.2021 22:00:00 8,8 7,6 46 25 65 35 W 1016,4 11 0,0
11.01.2021 21:00:00 8,7 7,3 39 21 55 30 W 1017,0 13 0,0

tt = temperature
td = dewpoint
ff = wind speed
fx = gusts
dd = wind direction
ppp = reduced air pressure
vv = visibility
rr = precipitation

Next stations